Abilene Dyess, TX

10:11 PM CDT on March 22, 2017 (GMT -0500)
Dyess Air Force Base

Weather History for KDYS - October, 2012

Change the Weather History Date:

Thursday, October 11, 2012

  Actual Average Record
Temperature  
Mean Temperature 72 °F -  
Max Temperature 85 °F 77 °F 94 °F (2015)
Min Temperature 59 °F 56 °F 46 °F (2014)
Cooling Degree Days 6    
Growing Degree Days 22 (Base 50)    
Moisture  
Dew Point 63 °F    
Average Humidity 91    
Maximum Humidity 100    
Minimum Humidity 53    
Precipitation  
Precipitation 0.00 in - - ()
Sea Level Pressure  
Sea Level Pressure 30.06 in    
Wind  
Wind Speed 3 mph (ESE)    
Max Wind Speed 16 mph    
Max Gust Speed -    
Visibility 3 miles    
Events Fog    
Averages and records for this station are not official NWS values.
T = Trace of Precipitation, MM = Missing Value Source: NWS Daily Summary

Daily Weather History Graph

Daily Weather History Graph

Search for Another Location

Airport or City:

Trip Planner

Search our weather history database for the weather conditions in past years. The results will help you decide how hot, cold, wet, or windy it might be!

Date:

Astronomy

Oct. 11, 2012 Rise Set
Actual Time 7:40 AM CDT 7:10 PM CDT
Civil Twilight 7:16 AM CDT 7:35 PM CDT
Nautical Twilight 6:47 AM CDT 8:03 PM CDT
Astronomical Twilight 6:19 AM CDT 8:32 PM CDT
Moon 3:34 AM CDT (10/11) 4:37 PM CDT (10/11)
Length of Visible Light 12h 19m
Length of Day
11h 30m
Waning Crescent, 18% of the Moon is Illuminated
Oct 11
Waning Crescent
Oct 15
New
Oct 21
First Quarter
Oct 29
Full
Nov 6
Last Quarter

Hourly Weather History & Observations

Time (CDT) Temp. Heat Index Dew Point Humidity Pressure Visibility Wind Dir Wind Speed Gust Speed Precip Events Conditions
12:07 AM 59.0 °F - 59.0 °F 100% 30.10 in 1.0 mi Calm Calm - N/A   Mist
12:45 AM 60.8 °F - 59.0 °F 94% 30.11 in 0.8 mi East 3.5 mph - N/A   Overcast
12:55 AM 59.9 °F - 59.4 °F 98% 30.08 in 0.8 mi Calm Calm - N/A   Overcast
1:55 AM 60.1 °F - 59.9 °F 99% 30.07 in 0.8 mi Calm Calm - N/A   Overcast
2:21 AM 60.8 °F - 60.8 °F 100% 30.07 in 0.8 mi Calm Calm - N/A   Light Drizzle
2:32 AM 60.8 °F - 60.8 °F 100% 30.07 in 0.8 mi North 3.5 mph - N/A   Light Drizzle
2:37 AM 60.8 °F - 60.8 °F 100% 30.07 in 0.8 mi Calm Calm - N/A   Light Drizzle
2:55 AM 60.3 °F - 60.1 °F 99% 30.06 in 0.8 mi Calm Calm - N/A   Light Drizzle
3:31 AM 60.8 °F - 60.8 °F 100% 30.06 in 0.5 mi Calm Calm - N/A Fog Fog
3:55 AM 60.6 °F - 60.6 °F 100% 30.05 in 0.5 mi Calm Calm - N/A Fog Fog
4:09 AM 60.8 °F - 60.8 °F 100% 30.05 in 0.5 mi North 3.5 mph - N/A Fog Fog
4:26 AM 60.8 °F - 60.8 °F 100% 30.05 in 0.5 mi Calm Calm - N/A Fog Fog
4:44 AM 60.8 °F - 60.8 °F 100% 30.05 in 0.5 mi North 3.5 mph - N/A Fog Fog
4:52 AM 60.8 °F - 60.8 °F 100% 30.04 in 0.5 mi North 3.5 mph - N/A Fog Fog
4:55 AM 60.4 °F - 60.4 °F 100% 30.04 in 0.5 mi North 4.6 mph - N/A Fog Fog
5:25 AM 60.8 °F - 60.8 °F 100% 30.05 in 0.5 mi North 3.5 mph - N/A Fog Fog
5:27 AM 60.8 °F - 60.8 °F 100% 30.05 in 0.5 mi North 3.5 mph - N/A Fog Fog
5:38 AM 60.8 °F - 60.8 °F 100% 30.06 in 0.5 mi Calm Calm - N/A Fog Fog
5:43 AM 60.8 °F - 60.8 °F 100% 30.05 in 0.5 mi Calm Calm - N/A Fog Fog
5:51 AM 60.8 °F - 60.8 °F 100% 30.05 in 0.2 mi Calm Calm - N/A   Mist
5:54 AM 60.8 °F - 60.8 °F 100% 30.06 in 0.2 mi NE 3.5 mph - N/A Fog Fog
5:55 AM 60.6 °F - 60.6 °F 100% 30.06 in 0.2 mi NE 3.5 mph - N/A Fog Fog
6:06 AM 60.8 °F - 60.8 °F 100% 30.06 in 0.5 mi NNE 3.5 mph - N/A Fog Fog
6:09 AM 60.8 °F - 60.8 °F 100% 30.06 in 0.5 mi NNE 3.5 mph - N/A Fog Fog
6:28 AM 60.8 °F - 60.8 °F 100% 30.06 in 0.5 mi NNE 3.5 mph - N/A   Light Drizzle
6:48 AM 60.8 °F - 60.8 °F 100% 30.07 in - Calm Calm - N/A   Light Drizzle
6:55 AM 60.8 °F - 60.8 °F 100% 30.07 in 0.5 mi Calm Calm - N/A   Light Drizzle
7:01 AM 60.8 °F - 60.8 °F 100% 30.08 in 0.5 mi Calm Calm - N/A   Light Drizzle
7:23 AM 60.8 °F - 60.8 °F 100% 30.07 in 0.5 mi Calm Calm - N/A Fog Fog
7:29 AM 60.8 °F - 60.8 °F 100% 30.07 in 0.4 mi NNE 3.5 mph - N/A Fog Fog
7:37 AM 60.8 °F - 60.8 °F 100% 30.07 in 0.2 mi Calm Calm - N/A Fog Fog
7:55 AM 61.2 °F - 61.2 °F 100% 30.07 in 0.2 mi NE 3.5 mph - N/A Fog Fog
7:56 AM 60.8 °F - 60.8 °F 100% 30.07 in 0.2 mi Calm Calm - N/A Fog Fog
8:01 AM 60.8 °F - 60.8 °F 100% 30.08 in 0.2 mi Calm Calm - N/A Fog Fog
8:07 AM 60.8 °F - 60.8 °F 100% 30.08 in 0.2 mi Calm Calm - N/A Fog Fog
8:20 AM 60.8 °F - 60.8 °F 100% 30.08 in 0.4 mi Calm Calm - N/A Fog Fog
8:29 AM 60.8 °F - 60.8 °F 100% 30.08 in 0.5 mi Calm Calm - N/A Fog Fog
8:38 AM 60.8 °F - 60.8 °F 100% 30.09 in 0.8 mi Calm Calm - N/A   Mist
8:55 AM 61.9 °F - 61.9 °F 100% 30.09 in 0.6 mi Calm Calm - N/A   Overcast
9:19 AM 62.6 °F - 62.6 °F 100% 30.09 in 0.8 mi Calm Calm - N/A   Overcast
9:36 AM 62.6 °F - 62.6 °F 100% 30.10 in 1.2 mi Calm Calm - N/A   Overcast
9:55 AM 63.7 °F - 63.7 °F 100% 30.10 in 1.5 mi NE 3.5 mph - N/A   Overcast
10:09 AM 64.4 °F - 64.4 °F 100% 30.10 in 1.8 mi NNE 3.5 mph - N/A   Overcast
10:19 AM 64.4 °F - 64.4 °F 100% 30.10 in 3.0 mi Calm Calm - N/A   Overcast
10:49 AM 66.2 °F - 66.2 °F 100% 30.10 in 5.0 mi ESE 3.5 mph - N/A   Overcast
10:55 AM 66.7 °F - 66.7 °F 100% 30.10 in 5.0 mi ESE 3.5 mph - N/A   Overcast
11:55 AM 74.8 °F - 68.0 °F 79% 30.08 in 10.0 mi South 3.5 mph - N/A   Mostly Cloudy
12:55 PM 77.5 °F - 67.1 °F 70% 30.07 in 10.0 mi South 13.8 mph - N/A   Overcast
12:56 PM 77.0 °F - 66.2 °F 69% 30.06 in 10.0 mi SSW 13.8 mph - N/A   Overcast
1:07 PM 77.0 °F - 68.0 °F 74% 30.06 in 10.0 mi SSW 12.7 mph - N/A   Overcast
1:55 PM 79.2 °F - 68.2 °F 69% 30.04 in 10.0 mi South 10.4 mph - N/A   Mostly Cloudy
2:18 PM 80.6 °F 83.2 °F 68.0 °F 65% 30.02 in 10.0 mi SSE 13.8 mph - N/A   Overcast
2:23 PM 80.6 °F 83.2 °F 68.0 °F 65% 30.02 in 10.0 mi South 11.5 mph - N/A   Overcast
2:55 PM 82.6 °F 85.7 °F 68.4 °F 62% 30.00 in 10.0 mi South 16.1 mph - N/A   Mostly Cloudy
3:55 PM 84.7 °F 87.4 °F 66.9 °F 55% 29.98 in 10.0 mi South 16.1 mph - N/A   Scattered Clouds
4:55 PM 84.7 °F 86.8 °F 66.0 °F 53% 29.97 in 10.0 mi South 13.8 mph - N/A   Partly Cloudy
5:55 PM 84.2 °F 86.1 °F 65.3 °F 53% 29.96 in 10.0 mi South 13.8 mph - N/A   Clear
6:55 PM 80.1 °F 82.1 °F 66.0 °F 62% 29.97 in 10.0 mi South 8.1 mph - N/A   Clear
7:55 PM 77.0 °F - 64.8 °F 66% 29.99 in 10.0 mi SSE 6.9 mph - N/A   Clear
8:55 PM 73.9 °F - 64.8 °F 73% 30.00 in 10.0 mi SE 8.1 mph - N/A   Partly Cloudy
9:55 PM 71.1 °F - 64.6 °F 80% 30.02 in 10.0 mi South 4.6 mph - N/A   Clear
10:55 PM 72.0 °F - 66.4 °F 83% 30.03 in 10.0 mi South 6.9 mph - N/A   Clear
11:55 PM 72.9 °F - 68.5 °F 86% 30.03 in 10.0 mi SSE 12.7 mph - N/A   Clear